Flag for Germany Weather past 2 weeks in Rathenow, Brandenburg, Germany

Now
76 °F

Scattered clouds.


Feels Like: 78 °F
Forecast: 62 / 84 °F
Wind: 3 mph from Southeast

Location: Neuruppin

Current Time: Aug 1, 2014 at 2:52:26 PM

Latest Report: Aug 1, 2014 at 2:00 PM


Visibility: 6 mi

Pressure: 29.93 "Hg

Humidity: 48%

Dew point: 55 °F

Location of RathenowLocation

Historic Weather in Rathenow — Graph

°F

Rathenow temperature yesterday

Maximum temperature yesterday: 76 °F (at 5:00 PM)
Minimum temperature yesterday: 59 °F (at 6:00 AM)
Average temperature yesterday: 67 °F

Past Weeks' High & Low Weather Summary

 TemperatureHumidityPressure
High90 °F (Jul 20, 4:00 PM)98% (Aug 1, 6:00 AM)30.17 "Hg (Aug 1, 6:00 AM)
Low57 °F (Aug 1, 4:00 AM)34% (Jul 18, 3:00 PM)29.70 "Hg (Jul 30, 4:00 AM)
Average71 °F71%29.95 "Hg
* Reported Jul 17 2:00 PM — Aug 1 2:00 PM, Rathenow, Weather by CustomWeather, © 2014

Note: Actual official high and low records may vary slightly from our data, if they occured in-between our weather recording intervals... More about our weather records

Advertising

Rathenow weather history for previous 24 hours

 ConditionsComfort  
Time TempWeatherWind HumidityBarometerVisibility
2:00 PM
Aug 1
76 °FScattered clouds.3 mph48%29.93 "Hg6 mi
1:00 PM75 °FPassing clouds.2 mph53%29.95 "Hg6 mi
12:00 PM75 °FSunny.3 mph53%29.96 "Hg6 mi
11:00 AM74 °FSunny.3 mph58%29.97 "Hg6 mi
10:00 AM71 °FSunny.1 mph63%29.97 "Hg6 mi
9:00 AM67 °FSunny.1 mph75%29.97 "Hg6 mi
8:00 AM63 °FSunny.1 mph90%29.97 "Hg6 mi
7:00 AM59 °FSunny.No wind96%29.97 "Hg3 mi
6:00 AM57 °FSunny.1 mph98%29.97 "Hg6 mi
4:00 AM57 °FClear.No wind95%29.98 "Hg6 mi
3:00 AM58 °FClear.No wind95%29.98 "Hg6 mi
2:00 AM59 °FClear.No wind94%29.98 "Hg2 mi
1:00 AM60 °FClear.No wind90%29.98 "Hg6 mi
12:00 AM60 °FClear.No wind86%29.97 "Hg6 mi
11:00 PM
Jul 31
62 °FClear.No wind87%29.97 "Hg6 mi
10:00 PM64 °FClear.No wind80%29.96 "Hg6 mi
9:00 PM67 °FSunny.No wind65%29.95 "Hg6 mi
8:00 PM71 °FSunny.1 mph56%29.94 "Hg6 mi
7:00 PM73 °FSunny.1 mph51%29.94 "Hg6 mi
6:00 PM75 °FPassing clouds.2 mph49%29.94 "Hg6 mi
5:00 PM76 °FScattered clouds.3 mph45%29.95 "Hg6 mi
4:00 PM74 °FPartly sunny.1 mph57%29.95 "Hg6 mi
3:00 PM73 °FPartly sunny.2 mph54%29.96 "Hg6 mi
2:00 PM73 °FSunny.2 mph54%29.96 "Hg6 mi
Weather by CustomWeather, © 2014

See weather overviewHow to use our weather pages